Погода Туапсе

Погода Туапсе : погода сейчас, прогноз погоды и архив. Всё, что Вы хотите узнать о погоде Туапсе!

Хотите узнать прогноз погоды Туапсе? Тогда Вам сюда: Погода Туапсе

Поиск расширенной информации на нашем сайте:

Полезная информация:

Другие новости

Новости СМИ2

Главная страница сайта

Новости сайта

03.07.2017

Напоминаем, что на нашем специализированном сайте Метеоцентр.Азия вы можете получить высокодетализированные автоматические прогнозы погоды по пунктам России, СНГ и мира в авиационном формате (включающие направление и скорость ветра, видимость, явления погоды, количество и форму облачности, нижнюю и верхнюю границу облачности).

Рекомендуем:

Погода Туапсе - сегодня

Время (UTC), дата Ветер
(°,м/с) 
Видим.   Явления Облачность Т
(°С)
Тd
(°С)
f(%) Тe
(°С)
Pmin
(гПа)
dP
(гПа)
Po
(мм)
O2
(г/м3)
Тmin Tmax R s Состояние
почвы
03 16.07.19 230 (ЮЗ) 20000 м    10/8 1000 м кучево-дожд., средняя, верхняя 
[Cb cap|Ac trans|Ci sp]
+21.1 +16.5 75 +33  1005.6  0.2  749  276  +20    0.0    влажная 
06 16.07.19 240 (ЮЗ) 2{11}  20000 м  гроза без осадков{ливн. осадки}  10/8 1000 м кучево-дожд., верхняя 
[Cb cap|Ci]
+19.5 +17.9 90 +35  1006.3  0.7  749  278  +18.3         
09 16.07.19 230 (ЮЗ) 20000 м  {гроза}  9/8 1000 м кучево-дожд., верхняя 
[Cb cap|Ci]
+23.7 +17.6 69 +37  1007.7  1.5  751  274           
12 16.07.19 230 (ЮЗ) 20000 м  {гроза}  6/6 1000 м 
[Cu Sc]
+24.8 +17.4 63 +38  1009  1.3  752  274           
15 16.07.19 240 (ЮЗ) 20000 м    4/4 1000 м 
[Cu Sc]
+23.7 +16.3 63 +35  1009.8  0.8  752  275    +25.9     
18 16.07.19 020 (С) 10 км    3/3 1000 м 
[Sc]
+20.4 +15.8 75 +30  1010.9  753  279           
21 16.07.19 020 (С) 10 км    ясно 
+18.1 +15.4 84 +28  1010.5  -0.5  752  281           
00 17.07.19 030 (СВ) 10 км    ясно 
+17 +14 82 +25  1009.7  -0.8  752  282           
03 17.07.19 050 (СВ) 20000 м    6/0 верхняя 
[Ci]
+17.2 +13.3 78 +24  1009.1  -0.6  751  282  +16.4        влажная 
06 17.07.19 130 (ЮВ) 20000 м    3/0 верхняя 
[Ci fib]
+24.7 +14.9 54 +33  1007.9  -1  751  274           
09 17.07.19 260 (З) 20000 м    3/0 средняя 
[Ac trans]
+28.1 +18.3 55 +43  1006.5  -1.3  750  270           
12 17.07.19 260 (З) 20000 м    3/0 средняя 
[Ac cast]
+29.3 +18.5 52 +45  1005.6  -0.9  749  268           
15 17.07.19 020 (С) 20000 м    ясно 
+28.2 +12.4 38 +33  1004.8  -0.8  748  271    +29.9       
18 17.07.19 050 (СВ) 10 км    4/0 верхняя 
[Ci fib]
+26.4 +11.7 40 +30  1004.6  -0.3  748  273           
21 17.07.19 170 (Ю) 10 км    6/0 верхняя 
[Ci fib]
+22.7 +19.2 81 +40  1005.3  0.7  749  274           
00 18.07.19 010 (С) н/о    н/о 
+21 +17 78 +33  1005.4  749  276           
03 18.07.19 060 (СВ) 20000 м  в посл. час ливневой дождь  10/6 1000 м кучево-дожд., средняя, верхняя 
[Cb cap|Ac trans|Ci fib]
+21.9 +14 61 +29  1005  -0.4  748  276  +20.7    0.0     
06 18.07.19 070 (В) 20000 м  {ливн. осадки}  10/8 1000 м кучево-дожд., средняя, верхняя 
[Cb cap|Ac trans|Ci sp]
+23.1 +15.3 61 +32  1005.7  0.8  749  275  +20.4         
09 18.07.19 050 (СВ) 20000 м  {ливн. осадки}  10/8 1000 м кучево-дожд., средняя 
[Cb cap|Ac As]
+23 +17.1 69 +36  1007  1.3  750  275           
12 18.07.19 230 (ЮЗ) 20000 м  {ливн. осадки}  10/5 1000 м верхняя 
[Cu Sc|Ci sp]
+26.5 +19.4 65 +44  1006.8  -0.2  750  271           
15 18.07.19 290 (З) 20000 м    9/4 600 м средняя, верхняя 
[Cu Sc|Ac cast|Ci sp]
+25.5 +19.7 70 +43  1007.6  0.8  750  272    +28.6  0.6     
18 18.07.19 030 (СВ) 10 км    9/5 600 м средняя, верхняя 
[Cu Sc|Ac trans|Ci sp]
+23.4 +16.7 66 +35  1008.9  1.3  751  275           
21 18.07.19 030 (СВ) н/о    н/о 
+22.9 +16.9 69 +35  1010.3  1.3  752  276           
00 19.07.19 040 (СВ) 10 км    10/4 1000 м кучево-дожд., средняя, верхняя 
[Cb cap|Ac trans|Ci sp]
+22.6 +17.1 71 +35  1010.9  0.6  753  276           
03 19.07.19 030 (СВ) 20000 м    10/8 1000 м кучево-дожд., средняя, верхняя 
[Cb cap|Ac trans|Ci sp]
+22.5 +17.2 72 +35  1011.9  754  277  +21.9        влажная 
Время (UTC), дата Ветер
(°,м/с) 
Видим.   Явления Облачность Т
(°С)
Тd
(°С)
f(%) Тe
(°С)
Pmin
(гПа)
dP
(гПа)
Po
(мм)
O2
(г/м3)
Тmin Tmax R s Состояние
почвы

Для получения пояснительной информации подведите курсор к названию столбца.

ПОГОДА Туапсе - архив

Всё, что Вы хотите узнать о погоде Туапсе - удобно и подробно!

Выберите нужную дату (начиная с 1 января 2018* года) и нажмите кнопку "Найти".
Будут отображены архивные сводки погоды по пункту Туапсе, начиная с указанной даты.


Отображать данные в формате CSV (для использования в таблицах Excel)


Внимание! Наш архив погоды предназначен исключительно для личного некоммерческого использования в познавательных целях. Если Вам необходимы официальные справки о состоянии погоды (для производственных, юридических, коммерческих и т.п. целей), обращайтесь в органы Росгидромета.

*Примечание: данная дата относится к архиву по метеостанциям СССР (Россия, СНГ, Балтия).
Архив по метеостанциям Зарубежной Европы и Азии (кроме Китая) хранится 10 дней, по другим регионам земного шара (Китай, Африка, Америка, Австралия, Океания) - 1 день.

Туапсе - район местоположения метеостанции


Название, широта, долгота, высота метеостанции:
Туапсе 44.1°ш. 39.1°д. 61 м над ур. моря [Российская Федерация]

Дополнительная информация

В oтличие oт бoльшинства пoгoдных сайтoв мы публикуем пoдрoбную метеoинфoрмацию в детальнoм прoфессиoнальнoм фoрмате.

Характеристики температуры и влажнoсти вoздуха измеряются на высoте 2 м в тени вдали oт зданий и деревьев.
Скoрoсть ветра измеряется на высoте 10 м (на урoвне рoста челoвека скoрoсть ветра ниже в 1.5-2 раза). Если метеoстанция нахoдится в гoрoде или в лесу, тo скoрoсть ветра занижена на 2-4 м/с пo сравнению с oткрытым местoм. Скoрoсть ветра над акватoриями крупных рек и oзёр, а также на вершинах хoлмoв на 2-5 м/с выше, чем в oбычных услoвиях.
Атмoсфернoе давление в разных тoчках местнoсти мoжет значительнo oтличаться oт давления на метеoстанции, в зависимoсти oт услoвий рельефа (при пoдъёме на 10 м давление пoнижается примернo на 1 мм рт.ст.).